QPF
0.00 0.00 0.02 0.02 0.03 0.04 0.02 0.02 0.02 0.02 0.02 0.02 0.03 0.03 0.02 0.02 0.02 0.01 0.01 0.01 0.01 0.01 0.01 0.01 0.01 0.01 0.01 0.01 0.01 0.00 0.00 0.00 0.00 0.00 0.00 0.00 0.00 0.01 0.00 0.01 0.01 0.01 0.00
0.00 0.00 0.03 0.04 0.04 0.05 0.03 0.02 0.02 0.01 0.02 0.02 0.03 0.03 0.02 0.02 0.02 0.02 0.02 0.01 0.02 0.02 0.02 0.01 0.01 0.01 0.01 0.01 0.00 0.00 0.00 0.00 0.00 0.00 0.00 0.00 0.00 0.01 0.01 0.00 0.00 0.01 0.01
0.00 0.01 0.02 0.03 0.04 0.04 0.03 0.02 0.02 0.01 0.01 0.01 0.02 0.03 0.03 0.03 0.02 0.02 0.01 0.01 0.02 0.02 0.02 0.01 0.01 0.01 0.01 0.01 0.00 0.00 0.00 0.00 0.00 0.00 0.00 0.00 0.00 0.00 0.01 0.01 0.01 0.01 0.01
0.01 0.01 0.02 0.03 0.04 0.04 0.03 0.02 0.01 0.01 0.01 0.01 0.01 0.03 0.02 0.02 0.01 0.01 0.01 0.01 0.01 0.02 0.01 0.01 0.00 0.01 0.01 0.00 0.00 0.00 0.00 0.00 0.00 0.00 0.00 0.00 0.00 0.00 0.01 0.01 0.01 0.01 0.01
0.01 0.02 0.04 0.04 0.04 0.04 0.04 0.03 0.02 0.01 0.01 0.01 0.01 0.02 0.03 0.02 0.01 0.01 0.01 0.01 0.02 0.02 0.01 0.00 0.00 0.00 0.00 0.00 0.00 0.00 0.00 0.00 0.00 0.00 0.00 0.00 0.00 0.00 0.01 0.01 0.01 0.01 0.01
0.02 0.04 0.05 0.05 0.03 0.03 0.04 0.03 0.02 0.01 0.01 0.01 0.01 0.02 0.03 0.02 0.02 0.01 0.01 0.01 0.01 0.02 0.01 0.01 0.00 0.00 0.00 0.00 0.00 0.00 0.00 0.00 0.00 0.00 0.00 0.00 0.00 0.00 0.00 0.01 0.01 0.01 0.01
0.03 0.05 0.06 0.06 0.05 0.04 0.03 0.03 0.02 0.02 0.01 0.01 0.01 0.01 0.02 0.02 0.02 0.02 0.02 0.01 0.01 0.01 0.01 0.01 0.01 0.00 0.00 0.00 0.00 0.00 0.01 0.00 0.00 0.00 0.00 0.00 0.00 0.00 0.01 0.01 0.01 0.00 0.01
0.03 0.05 0.06 0.06 0.06 0.05 0.03 0.02 0.02 0.02 0.01 0.01 0.01 0.01 0.01 0.02 0.03 0.03 0.02 0.01 0.01 0.00 0.01 0.01 0.01 0.01 0.00 0.00 0.00 0.00 0.00 0.00 0.00 0.00 0.00 0.00 0.00 0.01 0.01 0.01 0.01 0.01 0.01
0.03 0.04 0.05 0.05 0.06 0.06 0.06 0.05 0.03 0.03 0.02 0.01 0.01 0.00 0.00 0.01 0.03 0.03 0.02 0.01 0.01 0.01 0.00 0.00 0.01 0.01 0.01 0.01 0.00 0.00 0.00 0.00 0.00 0.00 0.00 0.00 0.01 0.01 0.01 0.01 0.01 0.01 0.02
0.04 0.05 0.05 0.04 0.05 0.06 0.05 0.05 0.05 0.03 0.03 0.02 0.01 0.00 0.00 0.01 0.02 0.03 0.02 0.01 0.01 0.01 0.00 0.00 0.00 0.01 0.01 0.01 0.00 0.00 0.00 0.00 0.00 0.01 0.01 0.01 0.01 0.01 0.01 0.01 0.02 0.02 0.03
0.07 0.06 0.05 0.05 0.04 0.05 0.06 0.06 0.05 0.06 0.04 0.04 0.02 0.01 0.00 0.01 0.01 0.03 0.01 0.01 0.01 0.01 0.00 0.00 0.00 0.00 0.00 0.00 0.00 0.00 0.00 0.01 0.01 0.01 0.01 0.01 0.01 0.02 0.02 0.02 0.02 0.03 0.03
0.08 0.08 0.07 0.06 0.05 0.06 0.06 0.07 0.06 0.06 0.08 0.06 0.04 0.02 0.01 0.01 0.02 0.02 0.01 0.01 0.01 0.01 0.00 0.00 0.00 0.00 0.00 0.01 0.00 0.00 0.01 0.00 0.00 0.00 0.00 0.00 0.01 0.01 0.01 0.02 0.02 0.02 0.03
0.08 0.07 0.07 0.05 0.06 0.09 0.08 0.07 0.07 0.06 0.08 0.09 0.05 0.03 0.02 0.01 0.01 0.01 0.02 0.01 0.01 0.01 0.01 0.00 0.00 0.00 0.00 0.00 0.00 0.00 0.00 0.00 0.00 0.00 0.00 0.00 0.00 0.00 0.01 0.01 0.01 0.02 0.03
0.10 0.08 0.08 0.06 0.05 0.07 0.09 0.07 0.07 0.07 0.06 0.08 0.11 0.06 0.03 0.02 0.02 0.02 0.01 0.01 0.01 0.01 0.01 0.00 0.00 0.00 0.00 0.00 0.00 0.00 0.00 0.00 0.00 0.00 0.00 0.00 0.00 0.00 0.00 0.01 0.01 0.01 0.02
0.11 0.09 0.09 0.09 0.07 0.06 0.08 0.08 0.07 0.09 0.09 0.06 0.08 0.11 0.07 0.04 0.03 0.03 0.03 0.02 0.01 0.01 0.01 0.00 0.00 0.00 0.00 0.00 0.00 0.00 0.00 0.00 0.00 0.00 0.00 0.00 0.00 0.00 0.00 0.00 0.00 0.01 0.01
0.11 0.12 0.14 0.14 0.12 0.09 0.08 0.07 0.06 0.07 0.10 0.08 0.04 0.05 0.07 0.06 0.05 0.04 0.03 0.03 0.02 0.01 0.01 0.01 0.00 0.00 0.00 0.00 0.00 0.00 0.00 0.01 0.01 0.01 0.00 0.00 0.00 0.00 0.00 0.01 0.01 0.01 0.01
0.09 0.13 0.16 0.20 0.17 0.15 0.10 0.08 0.07 0.07 0.08 0.10 0.10 0.06 0.05 0.05 0.06 0.07 0.05 0.04 0.03 0.02 0.01 0.01 0.00 0.00 0.00 0.00 0.00 0.00 0.00 0.00 0.01 0.01 0.00 0.00 0.00 0.00 0.00 0.00 0.01 0.01 0.01
0.08 0.12 0.15 0.21 0.19 0.19 0.15 0.10 0.07 0.06 0.07 0.08 0.09 0.10 0.06 0.04 0.05 0.07 0.07 0.06 0.03 0.03 0.02 0.01 0.01 0.00 0.00 0.00 0.00 0.00 0.00 0.00 0.01 0.00 0.00 0.00 0.00 0.00 0.00 0.00 0.00 0.00 0.01
0.09 0.10 0.15 0.18 0.20 0.19 0.17 0.14 0.10 0.07 0.07 0.09 0.08 0.09 0.09 0.06 0.04 0.04 0.06 0.07 0.05 0.02 0.02 0.02 0.01 0.00 0.00 0.00 0.00 0.00 0.00 0.00 0.00 0.00 0.00 0.00 0.00 0.00 0.00 0.00 0.00 0.00 0.00
0.10 0.10 0.13 0.16 0.15 0.16 0.16 0.14 0.12 0.10 0.09 0.09 0.10 0.08 0.09 0.10 0.07 0.04 0.04 0.05 0.06 0.04 0.02 0.02 0.02 0.01 0.00 0.00 0.00 0.00 0.00 0.00 0.00 0.01 0.00 0.00 0.00 0.00 0.00 0.00 0.00 0.00 0.00
0.09 0.09 0.10 0.13 0.12 0.09 0.09 0.09 0.08 0.07 0.06 0.06 0.06 0.07 0.08 0.11 0.11 0.07 0.04 0.03 0.03 0.04 0.03 0.02 0.02 0.02 0.01 0.00 0.00 0.00 0.00 0.00 0.00 0.00 0.00 0.00 0.00 0.00 0.00 0.00 0.00 0.00 0.00
0.05 0.06 0.05 0.07 0.09 0.08 0.06 0.04 0.03 0.03 0.02 0.02 0.02 0.03 0.05 0.07 0.11 0.12 0.08 0.04 0.02 0.03 0.03 0.02 0.02 0.02 0.02 0.01 0.01 0.00 0.00 0.00 0.00 0.00 0.00 0.00 0.00 0.00 0.00 0.00 0.00 0.00 0.00
0.03 0.03 0.02 0.02 0.03 0.04 0.04 0.02 0.01 0.01 0.00 0.01 0.01 0.01 0.02 0.04 0.05 0.08 0.10 0.07 0.04 0.02 0.04 0.03 0.02 0.02 0.02 0.02 0.02 0.01 0.00 0.00 0.00 0.00 0.00 0.00 0.00 0.00 0.00 0.00 0.00 0.00 0.00
0.02 0.01 0.01 0.00 0.00 0.01 0.01 0.01 0.00 0.00 0.00 0.00 0.00 0.00 0.00 0.01 0.03 0.03 0.05 0.07 0.07 0.04 0.03 0.05 0.05 0.03 0.02 0.02 0.02 0.03 0.02 0.01 0.01 0.00 0.00 0.00 0.00 0.00 0.00 0.00 0.00 0.00 0.00
0.00 0.00 0.00 0.00 0.00 0.00 0.00 0.00 0.00 0.00 0.00 0.00 0.00 0.00 0.00 0.00 0.01 0.02 0.03 0.04 0.06 0.07 0.05 0.03 0.05 0.06 0.04 0.02 0.02 0.03 0.02 0.01 0.01 0.01 0.01 0.01 0.00 0.00 0.00 0.00 0.00 0.00 0.00
0.00 0.00 0.00 0.00 0.00 0.00 0.00 0.00 0.00 0.00 0.00 0.00 0.00 0.00 0.00 0.00 0.00 0.01 0.02 0.02 0.03 0.05 0.05 0.04 0.04 0.05 0.07 0.06 0.03 0.02 0.03 0.03 0.02 0.01 0.01 0.02 0.02 0.02 0.01 0.00 0.00 0.00 0.00
MSLP
1014.78 1014.86 1015.06 1015.36 1015.73 1016.10 1016.42 1016.65 1016.77 1016.80 1016.77 1016.72 1016.69 1016.71 1016.78 1016.88 1017.00 1017.09 1017.13 1017.11 1017.04 1016.95 1016.86 1016.80 1016.79 1016.83 1016.90 1016.98 1017.05 1017.07 1017.05 1016.97 1016.86 1016.72 1016.59 1016.47 1016.38 1016.31 1016.26 1016.21 1016.16 1016.09 1016.01
1014.53 1014.67 1014.94 1015.31 1015.74 1016.15 1016.49 1016.73 1016.85 1016.86 1016.81 1016.76 1016.73 1016.77 1016.86 1016.99 1017.12 1017.23 1017.27 1017.25 1017.18 1017.07 1016.98 1016.91 1016.90 1016.94 1017.01 1017.09 1017.14 1017.15 1017.11 1017.01 1016.88 1016.74 1016.60 1016.49 1016.42 1016.36 1016.32 1016.27 1016.21 1016.14 1016.05
1014.31 1014.49 1014.81 1015.24 1015.72 1016.18 1016.55 1016.80 1016.92 1016.94 1016.90 1016.85 1016.85 1016.90 1017.00 1017.14 1017.28 1017.38 1017.41 1017.37 1017.28 1017.16 1017.05 1016.97 1016.96 1016.99 1017.05 1017.11 1017.14 1017.12 1017.05 1016.93 1016.78 1016.64 1016.51 1016.42 1016.36 1016.32 1016.30 1016.26 1016.21 1016.13 1016.04
1014.18 1014.39 1014.75 1015.22 1015.74 1016.23 1016.62 1016.90 1017.04 1017.08 1017.06 1017.03 1017.04 1017.10 1017.22 1017.35 1017.47 1017.55 1017.55 1017.48 1017.36 1017.22 1017.09 1017.00 1016.97 1016.99 1017.03 1017.07 1017.07 1017.02 1016.91 1016.77 1016.61 1016.46 1016.34 1016.27 1016.23 1016.22 1016.22 1016.20 1016.16 1016.09 1016.00
1014.19 1014.42 1014.80 1015.30 1015.84 1016.34 1016.76 1017.05 1017.22 1017.28 1017.28 1017.28 1017.31 1017.38 1017.48 1017.60 1017.69 1017.73 1017.70 1017.59 1017.45 1017.28 1017.14 1017.04 1017.00 1017.00 1017.01 1017.02 1016.98 1016.90 1016.76 1016.59 1016.41 1016.26 1016.15 1016.09 1016.08 1016.09 1016.11 1016.11 1016.08 1016.02 1015.95
1014.38 1014.62 1015.01 1015.51 1016.05 1016.55 1016.97 1017.27 1017.45 1017.54 1017.57 1017.59 1017.63 1017.70 1017.79 1017.88 1017.94 1017.94 1017.87 1017.73 1017.56 1017.38 1017.23 1017.13 1017.07 1017.05 1017.04 1017.00 1016.93 1016.80 1016.62 1016.43 1016.24 1016.08 1015.97 1015.93 1015.93 1015.95 1015.98 1015.99 1015.98 1015.93 1015.87
1014.77 1015.00 1015.38 1015.86 1016.37 1016.85 1017.25 1017.55 1017.74 1017.84 1017.89 1017.93 1017.97 1018.04 1018.11 1018.17 1018.19 1018.15 1018.05 1017.90 1017.72 1017.54 1017.39 1017.28 1017.21 1017.16 1017.12 1017.04 1016.92 1016.75 1016.54 1016.32 1016.11 1015.95 1015.84 1015.80 1015.80 1015.83 1015.86 1015.87 1015.86 1015.82 1015.76
1015.31 1015.54 1015.89 1016.32 1016.79 1017.22 1017.59 1017.87 1018.05 1018.16 1018.22 1018.27 1018.31 1018.36 1018.41 1018.44 1018.44 1018.37 1018.25 1018.10 1017.92 1017.75 1017.60 1017.49 1017.41 1017.33 1017.25 1017.13 1016.97 1016.76 1016.51 1016.27 1016.05 1015.88 1015.76 1015.71 1015.71 1015.72 1015.74 1015.74 1015.71 1015.65 1015.59
1015.96 1016.18 1016.49 1016.87 1017.26 1017.63 1017.95 1018.19 1018.36 1018.47 1018.54 1018.58 1018.63 1018.66 1018.69 1018.70 1018.66 1018.58 1018.46 1018.31 1018.14 1017.98 1017.85 1017.73 1017.63 1017.53 1017.40 1017.24 1017.03 1016.78 1016.51 1016.25 1016.02 1015.85 1015.73 1015.67 1015.64 1015.63 1015.62 1015.58 1015.53 1015.45 1015.36
1016.65 1016.86 1017.12 1017.43 1017.75 1018.05 1018.31 1018.51 1018.66 1018.76 1018.83 1018.88 1018.92 1018.94 1018.94 1018.92 1018.87 1018.78 1018.65 1018.51 1018.36 1018.22 1018.09 1017.97 1017.84 1017.70 1017.53 1017.32 1017.07 1016.80 1016.51 1016.25 1016.02 1015.85 1015.73 1015.66 1015.61 1015.57 1015.51 1015.43 1015.32 1015.20 1015.08
1017.29 1017.50 1017.72 1017.96 1018.20 1018.43 1018.64 1018.81 1018.95 1019.05 1019.12 1019.17 1019.19 1019.20 1019.18 1019.13 1019.05 1018.95 1018.83 1018.70 1018.56 1018.43 1018.29 1018.16 1018.01 1017.83 1017.61 1017.36 1017.08 1016.79 1016.50 1016.25 1016.04 1015.89 1015.78 1015.70 1015.63 1015.55 1015.45 1015.31 1015.14 1014.96 1014.78
1017.86 1018.06 1018.25 1018.42 1018.60 1018.77 1018.94 1019.09 1019.22 1019.33 1019.41 1019.46 1019.48 1019.46 1019.42 1019.34 1019.24 1019.12 1018.99 1018.86 1018.72 1018.59 1018.45 1018.29 1018.11 1017.89 1017.63 1017.35 1017.05 1016.76 1016.49 1016.27 1016.10 1015.98 1015.89 1015.82 1015.73 1015.62 1015.46 1015.26 1015.03 1014.78 1014.54
1018.31 1018.51 1018.66 1018.80 1018.93 1019.06 1019.21 1019.36 1019.50 1019.63 1019.72 1019.78 1019.79 1019.76 1019.68 1019.57 1019.44 1019.30 1019.15 1019.01 1018.87 1018.72 1018.56 1018.38 1018.16 1017.91 1017.62 1017.32 1017.02 1016.74 1016.51 1016.34 1016.21 1016.14 1016.09 1016.03 1015.95 1015.81 1015.61 1015.35 1015.05 1014.73 1014.43
1018.65 1018.85 1018.98 1019.08 1019.19 1019.32 1019.46 1019.63 1019.80 1019.95 1020.07 1020.13 1020.14 1020.08 1019.98 1019.84 1019.67 1019.50 1019.33 1019.17 1019.01 1018.84 1018.66 1018.45 1018.20 1017.92 1017.62 1017.31 1017.02 1016.78 1016.60 1016.48 1016.43 1016.41 1016.41 1016.38 1016.30 1016.15 1015.92 1015.62 1015.26 1014.88 1014.51
1018.89 1019.08 1019.21 1019.30 1019.40 1019.54 1019.70 1019.90 1020.10 1020.29 1020.43 1020.51 1020.51 1020.45 1020.32 1020.14 1019.95 1019.75 1019.55 1019.36 1019.18 1018.99 1018.78 1018.54 1018.27 1017.97 1017.67 1017.37 1017.11 1016.92 1016.79 1016.74 1016.75 1016.80 1016.84 1016.85 1016.79 1016.64 1016.40 1016.07 1015.68 1015.25 1014.83
1019.05 1019.24 1019.37 1019.47 1019.59 1019.74 1019.94 1020.17 1020.41 1020.63 1020.80 1020.89 1020.89 1020.82 1020.67 1020.48 1020.26 1020.04 1019.82 1019.61 1019.41 1019.20 1018.96 1018.70 1018.42 1018.11 1017.81 1017.54 1017.32 1017.17 1017.10 1017.11 1017.18 1017.28 1017.37 1017.42 1017.39 1017.27 1017.03 1016.71 1016.30 1015.85 1015.39
1019.17 1019.37 1019.50 1019.62 1019.76 1019.95 1020.17 1020.44 1020.70 1020.94 1021.13 1021.23 1021.25 1021.17 1021.03 1020.83 1020.61 1020.38 1020.15 1019.92 1019.70 1019.47 1019.22 1018.94 1018.65 1018.35 1018.06 1017.81 1017.62 1017.51 1017.49 1017.55 1017.66 1017.81 1017.94 1018.03 1018.04 1017.94 1017.75 1017.45 1017.06 1016.62 1016.15
1019.27 1019.47 1019.63 1019.77 1019.94 1020.15 1020.40 1020.68 1020.96 1021.21 1021.40 1021.51 1021.54 1021.48 1021.35 1021.17 1020.96 1020.74 1020.51 1020.29 1020.05 1019.81 1019.54 1019.26 1018.96 1018.66 1018.39 1018.16 1018.00 1017.92 1017.93 1018.01 1018.15 1018.32 1018.48 1018.60 1018.64 1018.60 1018.45 1018.21 1017.87 1017.47 1017.02
1019.35 1019.57 1019.76 1019.94 1020.13 1020.36 1020.62 1020.89 1021.16 1021.40 1021.59 1021.71 1021.75 1021.71 1021.61 1021.47 1021.29 1021.10 1020.89 1020.68 1020.45 1020.19 1019.92 1019.62 1019.32 1019.02 1018.76 1018.54 1018.40 1018.34 1018.36 1018.44 1018.59 1018.75 1018.92 1019.06 1019.14 1019.15 1019.07 1018.91 1018.65 1018.32 1017.92
1019.39 1019.66 1019.89 1020.11 1020.33 1020.56 1020.81 1021.07 1021.31 1021.53 1021.70 1021.81 1021.87 1021.87 1021.81 1021.72 1021.60 1021.45 1021.27 1021.08 1020.85 1020.59 1020.31 1020.00 1019.69 1019.40 1019.14 1018.93 1018.79 1018.73 1018.74 1018.81 1018.93 1019.07 1019.23 1019.37 1019.48 1019.54 1019.54 1019.47 1019.32 1019.08 1018.76
1019.40 1019.73 1020.02 1020.28 1020.53 1020.76 1020.99 1021.21 1021.41 1021.59 1021.73 1021.84 1021.92 1021.95 1021.95 1021.92 1021.86 1021.76 1021.63 1021.45 1021.24 1020.98 1020.69 1020.37 1020.06 1019.76 1019.50 1019.29 1019.15 1019.07 1019.05 1019.09 1019.17 1019.28 1019.41 1019.54 1019.66 1019.77 1019.85 1019.87 1019.82 1019.70 1019.48
1019.35 1019.76 1020.12 1020.44 1020.70 1020.94 1021.14 1021.31 1021.47 1021.60 1021.72 1021.82 1021.91 1021.98 1022.04 1022.07 1022.07 1022.03 1021.94 1021.79 1021.59 1021.33 1021.03 1020.71 1020.39 1020.09 1019.83 1019.63 1019.48 1019.38 1019.33 1019.32 1019.35 1019.41 1019.49 1019.60 1019.73 1019.86 1020.00 1020.11 1020.17 1020.15 1020.03
1019.25 1019.74 1020.18 1020.54 1020.84 1021.07 1021.25 1021.38 1021.49 1021.58 1021.67 1021.77 1021.87 1021.98 1022.09 1022.18 1022.24 1022.25 1022.20 1022.07 1021.88 1021.63 1021.33 1021.01 1020.70 1020.40 1020.15 1019.95 1019.79 1019.68 1019.60 1019.55 1019.53 1019.53 1019.56 1019.63 1019.73 1019.88 1020.05 1020.22 1020.36 1020.44 1020.43
1019.09 1019.67 1020.17 1020.59 1020.91 1021.14 1021.30 1021.41 1021.48 1021.54 1021.61 1021.71 1021.82 1021.96 1022.11 1022.24 1022.35 1022.40 1022.38 1022.28 1022.11 1021.87 1021.58 1021.28 1020.97 1020.70 1020.47 1020.28 1020.13 1020.01 1019.91 1019.83 1019.76 1019.70 1019.67 1019.69 1019.76 1019.89 1020.06 1020.27 1020.47 1020.62 1020.69
1018.89 1019.53 1020.09 1020.54 1020.89 1021.13 1021.28 1021.38 1021.43 1021.48 1021.54 1021.63 1021.76 1021.92 1022.09 1022.26 1022.39 1022.47 1022.48 1022.41 1022.26 1022.04 1021.78 1021.50 1021.23 1020.99 1020.79 1020.63 1020.50 1020.39 1020.29 1020.18 1020.07 1019.96 1019.88 1019.84 1019.86 1019.95 1020.10 1020.30 1020.52 1020.71 1020.83
1018.65 1019.33 1019.92 1020.40 1020.76 1021.02 1021.18 1021.28 1021.34 1021.39 1021.45 1021.54 1021.67 1021.84 1022.02 1022.20 1022.36 1022.46 1022.49 1022.45 1022.33 1022.14 1021.92 1021.69 1021.46 1021.27 1021.11 1020.99 1020.90 1020.81 1020.72 1020.60 1020.47 1020.32 1020.19 1020.09 1020.05 1020.08 1020.19 1020.36 1020.56 1020.76 1020.90
Thickness
5742 5742 5737 5737 5737 5736 5736 5736 5736 5736 5735 5734 5734 5734 5734 5734 5734 5733 5733 5733 5733 5732 5732 5732 5731 5731 5731 5730 5729 5729 5728 5728 5727 5727 5726 5726 5726 5725 5725 5725 5725 5727 5723
5741 5739 5734 5734 5734 5733 5733 5733 5733 5732 5732 5732 5731 5731 5731 5731 5731 5731 5730 5730 5730 5730 5730 5729 5728 5728 5728 5727 5726 5726 5725 5724 5724 5724 5724 5724 5723 5722 5722 5721 5721 5722 5720
5738 5735 5732 5731 5730 5730 5729 5729 5729 5729 5729 5729 5728 5728 5728 5728 5728 5728 5727 5727 5727 5727 5726 5726 5725 5725 5724 5724 5723 5723 5722 5721 5721 5721 5721 5724 5722 5719 5718 5718 5717 5717 5716
5733 5731 5729 5727 5727 5726 5725 5725 5725 5726 5726 5725 5725 5725 5725 5725 5725 5724 5724 5724 5723 5723 5723 5722 5722 5721 5721 5720 5720 5719 5719 5718 5717 5718 5721 5721 5720 5716 5715 5715 5714 5714 5713
5727 5726 5724 5723 5722 5722 5721 5721 5721 5721 5722 5722 5721 5721 5721 5721 5721 5721 5721 5720 5720 5719 5719 5719 5718 5718 5717 5717 5716 5716 5715 5715 5714 5716 5718 5717 5716 5713 5712 5711 5711 5710 5709
5720 5720 5718 5717 5717 5717 5717 5716 5717 5717 5717 5717 5717 5717 5717 5717 5717 5717 5717 5716 5716 5716 5715 5715 5715 5714 5714 5713 5713 5712 5711 5711 5712 5715 5714 5714 5713 5709 5708 5708 5707 5706 5706
5713 5713 5712 5711 5712 5712 5711 5711 5712 5712 5713 5713 5713 5713 5713 5713 5713 5712 5712 5713 5712 5712 5712 5712 5711 5711 5710 5709 5709 5708 5708 5707 5709 5711 5710 5710 5708 5705 5704 5704 5704 5703 5702
5705 5706 5705 5705 5705 5705 5706 5706 5706 5707 5707 5708 5708 5708 5708 5708 5708 5708 5708 5708 5708 5708 5708 5708 5708 5707 5706 5706 5705 5704 5704 5703 5705 5706 5706 5705 5702 5701 5700 5700 5699 5699 5698
5697 5698 5699 5699 5699 5699 5699 5700 5701 5701 5702 5702 5702 5702 5702 5702 5703 5703 5703 5704 5704 5704 5704 5704 5704 5703 5703 5702 5701 5700 5700 5699 5701 5702 5701 5700 5698 5697 5696 5696 5696 5695 5694
5689 5691 5692 5693 5693 5694 5694 5694 5695 5695 5696 5696 5697 5697 5697 5698 5698 5698 5699 5699 5699 5699 5699 5699 5699 5699 5698 5698 5697 5696 5695 5695 5698 5698 5697 5696 5693 5692 5692 5692 5692 5691 5691
5681 5683 5685 5686 5687 5688 5688 5688 5689 5689 5690 5691 5691 5691 5692 5694 5694 5694 5693 5694 5694 5694 5694 5694 5694 5694 5694 5694 5693 5692 5692 5693 5694 5693 5692 5689 5688 5688 5688 5688 5687 5687 5687
5673 5675 5678 5680 5681 5682 5682 5682 5683 5684 5684 5686 5686 5687 5688 5688 5689 5689 5688 5688 5689 5689 5689 5689 5689 5689 5690 5691 5690 5688 5689 5689 5689 5688 5687 5684 5683 5683 5683 5683 5683 5682 5682
5666 5668 5670 5672 5674 5674 5675 5676 5677 5677 5678 5679 5680 5681 5682 5683 5683 5684 5684 5684 5685 5685 5686 5685 5686 5686 5686 5686 5685 5685 5685 5684 5684 5683 5682 5679 5678 5678 5678 5678 5678 5678 5677
5659 5660 5662 5665 5666 5667 5668 5669 5670 5671 5671 5672 5673 5675 5676 5677 5677 5678 5679 5679 5680 5680 5680 5680 5680 5681 5681 5681 5680 5680 5680 5679 5678 5677 5676 5673 5673 5673 5673 5673 5673 5672 5672
5651 5652 5654 5657 5659 5660 5661 5662 5663 5664 5665 5665 5666 5667 5668 5670 5671 5672 5673 5673 5674 5673 5674 5674 5675 5675 5675 5675 5675 5674 5674 5674 5673 5672 5670 5667 5667 5666 5666 5667 5666 5666 5666
5644 5645 5647 5649 5651 5653 5654 5655 5656 5657 5657 5657 5658 5659 5661 5662 5663 5664 5666 5666 5667 5667 5667 5668 5668 5668 5669 5669 5668 5668 5667 5667 5667 5666 5664 5662 5660 5659 5659 5659 5659 5659 5658
5637 5638 5640 5641 5643 5645 5646 5648 5649 5649 5650 5650 5650 5651 5653 5654 5656 5657 5658 5659 5659 5659 5661 5661 5662 5662 5662 5662 5662 5661 5660 5660 5659 5659 5657 5656 5654 5652 5651 5650 5650 5650 5650
5629 5630 5632 5634 5636 5636 5638 5640 5641 5642 5642 5642 5643 5643 5645 5646 5648 5649 5650 5651 5651 5652 5653 5654 5654 5655 5655 5654 5654 5654 5653 5652 5652 5651 5649 5648 5646 5645 5643 5641 5641 5641 5641
5622 5623 5625 5627 5629 5629 5630 5631 5632 5633 5634 5634 5635 5636 5637 5638 5639 5641 5641 5643 5644 5645 5645 5645 5646 5647 5647 5646 5646 5645 5645 5645 5644 5642 5641 5639 5637 5636 5635 5633 5632 5631 5631
5615 5616 5618 5619 5620 5621 5622 5623 5624 5625 5626 5626 5627 5628 5629 5629 5630 5632 5633 5634 5635 5636 5637 5637 5638 5638 5638 5638 5638 5638 5637 5636 5635 5634 5632 5630 5628 5627 5626 5625 5624 5623 5622
5609 5610 5611 5613 5614 5615 5616 5617 5618 5619 5618 5618 5619 5619 5619 5620 5622 5624 5625 5625 5626 5627 5627 5628 5629 5629 5629 5629 5631 5631 5630 5628 5627 5625 5623 5622 5620 5618 5616 5616 5615 5614 5614
5604 5605 5606 5607 5608 5609 5609 5609 5608 5610 5610 5611 5611 5611 5611 5612 5613 5615 5616 5617 5617 5617 5618 5618 5618 5620 5620 5619 5620 5623 5624 5623 5620 5616 5614 5613 5611 5609 5608 5606 5605 5604 5604
5599 5600 5601 5600 5601 5602 5601 5601 5601 5603 5603 5604 5604 5604 5604 5605 5605 5606 5607 5607 5607 5608 5608 5608 5608 5609 5610 5609 5608 5610 5613 5616 5612 5609 5606 5604 5601 5600 5598 5597 5595 5594 5593
5595 5594 5594 5594 5594 5595 5595 5596 5598 5599 5600 5600 5598 5597 5597 5597 5598 5598 5598 5598 5598 5598 5599 5599 5598 5598 5599 5600 5599 5597 5598 5600 5600 5602 5599 5595 5592 5590 5588 5587 5585 5583 5582
5591 5589 5589 5589 5589 5589 5589 5590 5591 5592 5593 5592 5590 5590 5590 5590 5589 5589 5589 5589 5589 5589 5589 5589 5589 5589 5588 5589 5588 5588 5587 5587 5587 5589 5591 5588 5584 5581 5578 5576 5574 5572 5571
5586 5584 5583 5584 5584 5584 5584 5584 5585 5585 5586 5585 5584 5584 5584 5583 5582 5581 5580 5580 5580 5580 5580 5580 5579 5579 5579 5578 5577 5576 5576 5577 5577 5576 5578 5577 5575 5572 5567 5565 5563 5561 5559